Regional Weather Roundup
Issued by NWS Charleston, SC

Current Version | Previous Version | Graphics & Text | Print | Product List | Glossary On
Versions: 1 2 3 4 5 6 7 8 9 10 11 12 13 14 15 16 17 18 19 20 21 22 23 24 25 26 27 28 29 30 31 32 33 34 35 36 37 38 39 40 41 42 43 44 45 46 47 48 49 50
323
ASUS42 KCHS 261027
RWRCHS

Regional Weather Roundup
National Weather Service Charleston SC
600 AM EDT SAT MAY 26 2018

NOTE: "fair" indicates few or no clouds below 12,000 feet with no
significant weather and/or obstructions to visibility.

Not all stations are quality controlled. Use data with caution,
especially dewpoint observations.

SCZ027-030-031-034>040-042>050-261100-
...Southeast South Carolina...

CITY           SKY/WX    TMP DP  RH WIND       PRES   REMARKS
N Charleston   FAIR      73  72  96 SE5       29.98S
Waterfront Prk   N/A     77  74  91 S7        29.82S
Mount Pleasant PTSUNNY   73  73 100 CALM      29.99S FOG
Johns Island   FAIR      77  73  88 S7        29.99R FOG
Pinopolis        N/A     72  72 100 VRB3      29.90S
Moncks Corner  FAIR      68  66  94 CALM      29.98S FOG
Summerville    FAIR      68  68 100 CALM      29.99S
Beaufort MCAS  FAIR      77  75  93 S3        29.97S
Beaufort Arpt  PTSUNNY   73  72  94 CALM      29.97S FOG
Hilton Head Is MOCLDY    77  73  88 CALM      29.98S
Walterboro     CLOUDY    70  68  94 CALM      29.99S FOG
Allendale      CLOUDY    72  72 100 CALM      29.97R FOG

...Southern Midlands and Pee Dee...

CITY           SKY/WX    TMP DP  RH WIND       PRES   REMARKS
Georgetown     FOG       68  68 100 CALM      30.00S VSB 1
Kingstree      FAIR      70  68  94 CALM      29.99R
Orangeburg     CLOUDY    71  69  93 SE3       29.97S
Barnwell       CLOUDY    73  72  94 S5        29.97R
Aiken          CLOUDY    70  70 100 S6        29.99S
Manning        CLOUDY    66  66 100 CALM      29.98R FOG
Columbia       CLOUDY    73  72  96 S3        29.95F
Sumter         CLOUDY    70  70 100 CALM      29.96R FOG
Florence       FOG       71  70  96 S5        29.99R VSB 1
Myrtle Beach   NOT AVBL
N Myrtle Beach FAIR      74  73  97 SW6       29.99S

$$

GAZ063-065-086>088-099>101-113>116-118-119-134>141-150-261100-
...Southeast Georgia...

CITY           SKY/WX    TMP DP  RH WIND       PRES   REMARKS
Savannah Arpt  FAIR      73  72  96 CALM      29.97S
Hunter AAF     FAIR      74  71  91 CALM      29.94S
Fort Stewart   FOG       70  70 100 CALM      29.95R VSB 3/4
Statesboro     CLOUDY    72  71  97 S7        29.97R
Sylvania       CLOUDY    73  73  99 CALM      29.98S
Claxton        FAIR      72  71  98 CALM      29.97S FOG

...CSRA, Central and far Southeast Georgia...

CITY           SKY/WX    TMP DP  RH WIND       PRES   REMARKS
Thomson        CLOUDY    71  70  98 W3        30.00R FOG
Augusta-Bush   CLOUDY    72  71  97 S6        29.94F
Augusta-Daniel CLOUDY    73  72  96 SE7       29.95F
Swainsboro     FOG       72  72 100 S6        29.97R VSB 3/4
Vidalia        MOCLDY    72  68  88 SE5       29.97R FOG
Eastman        CLOUDY    72  65  78 CALM      29.97S HAZE
Hazlehurst       N/A     72  68  88 CALM      29.96R
Alma           MOCLDY    72  70  93 S5        29.97R FOG
Waycross       CLOUDY    71  68  90 CALM      29.97S FOG
Jesup          FAIR      71  68  89 CALM      29.97S
Baxley         CLOUDY    68  68 100 CALM      29.97R FOG
Brunswick      FOG       70  68  94 CALM      29.98R VSB 1/4
Saint Simons   FAIR      76  72  87 SW5       29.96S

$$

SCZ027-028-034-036>038-045-046-048>050-GAZ119-141-261100-
...Lake and Supplemental Coastal Observations...

STATION/POSITION TIME  TEMP    WIND        PRES    WAVE   SWELL
                       AIR SEA DIR/SP/G            HT/PER HT/PER/DIR
                 (UTC) (F)     (DEG/KT/KT) (MB)    (FT/S) (FT/S/D)
Winyah Bay       0945   74        CALM     1016.0S
Lake Murray      0920   74     190/  9/ 12 1013.5
ACE Basin NERRS  0945   76        CALM     1015.0S
Fort Pulaski     1000   73 79  190/  4/  7 1015.3
Sapelo Island    1000   74     210/  5     1014.0

$$

ANZ835-935-AMZ111-154-330-350-352-354-370-450-454-472-261100-
...C-MAN and Buoy Observations...

STATION/POSITION TIME  TEMP    WIND        PRES    WAVE   SWELL
                       AIR SEA DIR/SP/G            HT/PER HT/PER/DIR
                 (UTC) (F)     (DEG/KT/KT) (MB)    (FT/S) (FT/S/D)
Buoy 41004       1000      76  180/  6/  6 1015.6
Buoy 41008       0950   76 77  170/  8/ 10 1014.3F   3/ 9   2/ 90/ 9
Folly Beach CMAN 1000   77     180/  9/ 11 1016.0S
Capers Nearshore NOT AVBL
Fripp Nearshore  NOT AVBL


STATION/POSITION TIME  TEMP    WIND        PRES    WAVE   SWELL
                       AIR SEA DIR/SP/G            HT/PER HT/PER/DIR
                 (UTC) (F)     (DEG/KT/KT) (MB)    (FT/S) (FT/S/D)
5E St. Marys GA  1000      78                N/A     3/ 5
Frying Pan Buoy  1010   77 76  230/  8/  8 1016.1
Buoy 41025       1010   77 78  240/ 10/ 14 1016.5
Cape Lookout NC  1000          220/  6/  7 1016.4R
Buoy 41002       1010      78  200/  4/  6 1017.3
Buoy 41010       1010   77 79  110/ 12/ 16 1015.9
St Augustine FL  1000   74 78  190/  5/  5 1014.8R


$$




USA.gov is the U.S. government's official web portal to all federal, state and local government web resources and services.